WX4HP-13 Weather Reports


Display with metric or nautical units.
time (UTC)temp
F
wind
direction
speed
MPH
gust
MPH
rain 1hr
in
rain 24hr
in
rain mn
in
humidity
%
barometer
mb
20260510215955 79 86 3.0 6.0 0.00 0.00 0.00 40 1014.9
20260510215456 80 70 1.0 4.0 0.00 0.00 0.00 38 1014.7
20260510214955 81 82 1.0 5.0 0.00 0.00 0.00 37 1014.6
20260510214455 81 213 0.0 2.0 0.00 0.00 0.00 37 1014.6
20260510213955 81 262 1.0 4.0 0.00 0.00 0.00 37 1014.7
20260510213455 81 263 0.0 2.0 0.00 0.00 0.00 38 1014.5
20260510212455 80 149 0.0 2.0 0.00 0.00 0.00 39 1014.6
20260510211955 81 71 1.0 3.0 0.00 0.00 0.00 38 1014.6
20260510211455 81 280 2.0 4.0 0.00 0.00 0.00 37 1014.6
20260510210955 80 315 1.0 4.0 0.00 0.00 0.00 41 1014.6
20260510210455 81 310 2.0 5.0 0.00 0.00 0.00 39 1014.7
20260510205956 81 1 1.0 4.0 0.00 0.00 0.00 41 1014.7
20260510205457 81 256 1.0 3.0 0.00 0.00 0.00 40 1014.6
20260510204955 81 263 1.0 3.0 0.00 0.00 0.00 40 1014.7
20260510204455 81 263 1.0 3.0 0.00 0.00 0.00 41 1014.8
20260510203955 81 213 1.0 3.0 0.00 0.00 0.00 40 1014.8
20260510202956 80 342 2.0 5.0 0.00 0.00 0.00 43 1014.8
20260510202457 80 107 0.0 4.0 0.00 0.00 0.00 44 1014.8
20260510201955 80 319 1.0 5.0 0.00 0.00 0.00 45 1014.9
20260510201455 80 310 1.0 6.0 0.00 0.00 0.00 45 1015.0
20260510200955 81 2 1.0 6.0 0.00 0.00 0.00 46 1015.0
20260510200455 81 221 1.0 4.0 0.00 0.00 0.00 45 1015.1
20260510195956 80 120 0.0 3.0 0.00 0.00 0.00 44 1015.0
20260510195455 79 143 0.0 2.0 0.00 0.00 0.00 45 1015.0
20260510194956 79 189 0.0 2.0 0.00 0.00 0.00 50 1015.1
20260510194455 78 118 1.0 5.0 0.00 0.00 0.00 50 1015.3
20260510193955 78 103 2.0 4.0 0.00 0.00 0.00 49 1015.3
20260510193456 79 114 1.0 6.0 0.00 0.00 0.00 49 1015.3
20260510192955 79 76 2.0 7.0 0.00 0.00 0.00 47 1015.3
20260510192456 78 12 0.0 4.0 0.00 0.00 0.00 46 1015.5
20260510191955 77 106 1.0 3.0 0.00 0.00 0.00 46 1015.6
20260510191455 76 131 0.0 2.0 0.00 0.00 0.00 54 1015.7
20260510190955 76 131 0.0 2.0 0.00 0.00 0.00 54 1015.7
20260510190456 77 62 1.0 4.0 0.00 0.00 0.00 51 1015.7
20260510185955 78 102 0.0 4.0 0.00 0.00 0.00 48 1015.7
20260510185456 78 136 0.0 3.0 0.00 0.00 0.00 48 1015.6
20260510184956 77 114 0.0 4.0 0.00 0.00 0.00 51 1015.7
20260510184456 77 138 0.0 1.0 0.00 0.00 0.00 51 1015.8
20260510183956 77 138 0.0 1.0 0.00 0.00 0.00 51 1015.9
20260510183455 78 167 0.0 1.0 0.00 0.00 0.00 51 1015.9
20260510182456 78 121 1.0 4.0 0.00 0.00 0.00 47 1015.7
20260510181957 76 284 0.0 2.0 0.00 0.00 0.00 47 1015.9
20260510181456 75 10 1.0 4.0 0.00 0.00 0.00 51 1016.1
20260510180956 76 55 1.0 4.0 0.00 0.00 0.00 50 1016.1
20260510180454 76 100 1.0 2.0 0.00 0.00 0.00 50 1016.1
20260510175955 77 93 2.0 5.0 0.00 0.00 0.00 51 1016.1
20260510175455 77 92 2.0 5.0 0.00 0.00 0.00 52 1016.0
20260510174956 79 97 3.0 6.0 0.00 0.00 0.00 49 1015.9
20260510173956 0 0 0.0 0.0 0.00 0.00 0.00 100
20260510172954 0 0 0.0 0.0 0.00 0.00 0.00 100
20260510172454 76 249 2.0 5.0 0.00 0.00 0.00 51 1016.5
20260510171957 77 260 2.0 4.0 0.00 0.00 0.00 51 1016.5
20260510171457 77 221 2.0 2.0 0.00 0.00 0.00 50 1016.4
20260510170954 77 221 2.0 2.0 0.00 0.00 0.00 50 1016.4
20260510170458 0 0 0.0 0.0 0.00 0.00 0.00 100
20260510165956 78 245 1.0 4.0 0.00 0.00 0.00 52 1016.4
20260510165456 78 55 1.0 3.0 0.00 0.00 0.00 48 1016.4
20260510164457 76 137 1.0 3.0 0.00 0.00 0.00 50 1016.8
20260510163454 76 111 1.0 3.0 0.00 0.00 0.00 50 1016.7
20260510162957 76 192 1.0 3.0 0.00 0.00 0.00 52 1016.7
20260510162454 74 145 0.0 2.0 0.00 0.00 0.00 54 1016.8
20260510161955 73 105 0.0 2.0 0.00 0.00 0.00 55 1016.9
20260510161456 73 132 0.0 1.0 0.00 0.00 0.00 57 1016.9
20260510160955 72 276 0.0 2.0 0.00 0.00 0.00 64 1016.9
20260510160458 72 292 0.0 1.0 0.00 0.00 0.00 65 1016.9
20260510155956 73 339 0.0 2.0 0.00 0.00 0.00 65 1016.9
20260510155456 74 8 1.0 3.0 0.00 0.00 0.00 63 1016.8
20260510154956 74 302 0.0 2.0 0.00 0.00 0.00 65 1016.7
20260510154457 74 243 1.0 3.0 0.00 0.00 0.00 64 1016.6
20260510153957 74 233 1.0 2.0 0.00 0.00 0.00 65 1016.6
20260510153457 74 240 1.0 3.0 0.00 0.00 0.00 67 1016.6
20260510152956 74 252 2.0 4.0 0.00 0.00 0.00 67 1016.7
20260510152457 74 247 1.0 3.0 0.00 0.00 0.00 67 1016.6
20260510151456 73 258 1.0 2.0 0.00 0.00 0.00 68 1016.7
20260510150955 73 291 1.0 3.0 0.00 0.00 0.00 70 1016.7
20260510150455 73 263 1.0 3.0 0.00 0.00 0.00 71 1016.8
20260510145955 72 104 1.0 3.0 0.00 0.00 0.00 74 1016.8
20260510145455 71 256 1.0 3.0 0.00 0.00 0.00 74 1016.9
20260510144955 71 259 1.0 3.0 0.00 0.00 0.00 75 1016.9
20260510144456 0 0 0.0 0.0 0.00 0.00 0.00 100
20260510143956 0 0 0.0 0.0 0.00 0.00 0.00 100
20260510143456 71 206 0.0 1.0 0.00 0.00 0.00 76 1017.0
20260510142957 70 58 1.0 2.0 0.00 0.00 0.00 77 1017.1
20260510142456 70 121 0.0 2.0 0.00 0.00 0.00 76 1016.9
20260510141956 70 256 1.0 3.0 0.00 0.00 0.00 76 1017.1
20260510141455 69 222 0.0 3.0 0.00 0.00 0.00 78 1017.0
20260510140955 69 246 1.0 3.0 0.00 0.00 0.00 79 1017.0
20260510140456 67 174 0.0 1.0 0.00 0.00 0.00 84 1017.2
20260510135955 67 249 0.0 1.0 0.00 0.00 0.00 85 1017.4
20260510135455 67 249 0.0 1.0 0.00 0.00 0.00 84 1017.3
20260510134957 67 249 0.0 1.0 0.00 0.00 0.00 85 1017.3
20260510134456 67 247 1.0 2.0 0.00 0.00 0.00 84 1017.2
20260510133956 68 242 1.0 2.0 0.00 0.00 0.00 83 1017.1
20260510133458 67 108 0.0 2.0 0.00 0.00 0.00 86 1017.1
20260510132957 65 97 0.0 2.0 0.00 0.00 0.00 91 1017.3
20260510132456 64 280 0.0 1.0 0.00 0.00 0.00 93 1017.3
20260510131955 63 280 0.0 1.0 0.00 0.00 0.00 95 1017.1
20260510131455 63 280 0.0 1.0 0.00 0.00 0.00 96 1017.0
20260510130955 63 0 0.0 0.0 0.00 0.00 0.00 97 1016.9
20260510130455 63 258 0.0 1.0 0.00 0.00 0.00 97 1017.0
20260510125955 63 231 0.0 2.0 0.00 0.00 0.00 97 1017.0
20260510125455 63 253 0.0 1.0 0.00 0.00 0.00 97 1017.0
20260510124956 63 255 0.0 2.0 0.00 0.00 0.00 98 1017.0
20260510124456 62 0 0.0 0.0 0.00 0.00 0.00 98 1016.8
20260510123955 63 243 0.0 1.0 0.00 0.00 0.00 98 1016.9
20260510123455 62 243 0.0 1.0 0.00 0.00 0.00 98 1016.9
20260510122957 62 0 0.0 0.0 0.00 0.00 0.00 98 1016.9
20260510122455 62 242 0.0 1.0 0.00 0.00 0.00 98 1016.8
20260510121955 62 256 0.0 1.0 0.00 0.00 0.00 98 1016.8
20260510121457 62 62 0.0 1.0 0.00 0.00 0.00 98 1016.8
20260510120955 62 41 0.0 1.0 0.00 0.00 0.00 98 1016.7
20260510120456 62 257 0.0 1.0 0.00 0.00 0.00 98 1016.6
20260510115956 62 255 0.0 1.0 0.00 0.00 0.00 98 1016.4
20260510114955 62 256 0.0 1.0 0.00 0.00 0.00 98 1016.3
20260510114456 62 254 0.0 1.0 0.00 0.00 0.00 98 1016.1
20260510113955 62 0 0.0 0.0 0.00 0.00 0.00 98 1016.0
20260510113455 61 0 0.0 0.0 0.00 0.00 0.00 98 1016.0
20260510112955 61 0 0.0 0.0 0.00 0.00 0.00 98 1015.9
20260510112455 61 246 0.0 1.0 0.00 0.00 0.00 98 1015.8
20260510112029 61 266 0.0 1.0 0.00 0.00 0.00 98 1015.8
20260510111955 61 266 0.0 1.0 0.00 0.00 0.00 98 1015.8
20260510111455 61 338 0.0 2.0 0.00 0.00 0.00 98 1015.7
20260510110955 61 0 0.0 0.0 0.00 0.00 0.00 98 1015.6
20260510110455 61 0 0.0 0.0 0.00 0.00 0.00 98 1015.5
20260510105955 61 208 0.0 1.0 0.00 0.00 0.00 98 1015.4
20260510105538 61 110 0.0 2.0 0.00 0.00 0.00 98 1015.4
20260510105455 61 110 0.0 2.0 0.00 0.00 0.00 98 1015.4
20260510104955 61 121 0.0 2.0 0.00 0.00 0.00 98 1015.1
20260510104455 61 250 0.0 1.0 0.00 0.00 0.00 98 1015.0
20260510104034 61 0 0.0 0.0 0.00 0.00 0.00 98 1015.0
20260510103956 61 0 0.0 0.0 0.00 0.00 0.00 98 1015.0
20260510103455 61 251 0.0 1.0 0.00 0.00 0.00 98 1015.1
20260510102955 61 248 0.0 1.0 0.00 0.00 0.00 98 1015.0
20260510102455 61 257 0.0 2.0 0.00 0.00 0.00 98 1015.0
20260510101955 61 116 0.0 3.0 0.00 0.00 0.00 98 1015.0
20260510101456 62 193 0.0 1.0 0.00 0.00 0.00 98 1015.0
20260510100955 62 210 0.0 1.0 0.00 0.00 0.00 98 1014.9
20260510100455 62 233 0.0 2.0 0.00 0.00 0.00 98 1015.0
20260510095955 62 54 0.0 2.0 0.00 0.00 0.00 98 1014.9
20260510095455 62 289 0.0 2.0 0.00 0.00 0.00 98 1014.9
20260510094955 62 294 0.0 2.0 0.00 0.00 0.00 98 1014.9
20260510094455 62 228 0.0 1.0 0.00 0.00 0.00 98 1014.8
20260510093955 62 292 0.0 3.0 0.00 0.00 0.00 98 1014.7
20260510093455 62 289 0.0 1.0 0.00 0.00 0.00 98 1014.7
20260510092955 62 284 0.0 2.0 0.00 0.00 0.00 97 1014.7
20260510092455 62 0 0.0 0.0 0.00 0.00 0.00 98 1014.6
20260510091955 62 252 0.0 1.0 0.00 0.00 0.00 98 1014.5
20260510091455 62 251 0.0 2.0 0.00 0.00 0.00 97 1014.5
20260510090955 62 251 0.0 2.0 0.00 0.00 0.00 98 1014.4
20260510090455 62 251 0.0 1.0 0.00 0.00 0.00 97 1014.3
20260510085955 62 251 0.0 1.0 0.00 0.00 0.00 97 1014.3
20260510085455 62 247 0.0 2.0 0.00 0.00 0.00 97 1014.3
20260510084955 62 246 0.0 2.0 0.00 0.00 0.00 97 1014.3
20260510083958 62 252 0.0 2.0 0.00 0.00 0.00 97 1014.2
20260510083457 63 259 2.0 4.0 0.00 0.00 0.00 97 1014.2
20260510082955 63 251 1.0 3.0 0.00 0.00 0.00 97 1014.0
20260510082455 63 249 1.0 3.0 0.00 0.00 0.00 97 1014.0
20260510081955 63 248 1.0 4.0 0.00 0.00 0.00 97 1014.0
20260510081455 63 251 1.0 4.0 0.00 0.00 0.00 97 1013.8
20260510080955 63 264 1.0 4.0 0.00 0.00 0.00 97 1013.8
20260510080455 63 260 2.0 3.0 0.00 0.00 0.00 97 1013.7
20260510075955 63 260 2.0 4.0 0.00 0.00 0.00 97 1013.6
20260510075455 63 249 2.0 5.0 0.00 0.00 0.00 97 1013.6
20260510074957 63 258 1.0 2.0 0.00 0.00 0.00 97 1013.4
20260510073956 63 245 0.0 1.0 0.00 0.00 0.00 97 1013.5
20260510073534 63 240 0.0 2.0 0.00 0.00 0.00 97 1013.6
20260510073455 63 240 0.0 2.0 0.00 0.00 0.00 97 1013.6
20260510072957 63 246 0.0 2.0 0.00 0.00 0.00 97 1013.5
20260510072455 63 245 0.0 2.0 0.00 0.00 0.00 97 1013.5
20260510071956 63 246 1.0 3.0 0.00 0.00 0.00 97 1013.5
20260510070955 62 250 0.0 2.0 0.00 0.00 0.00 97 1013.6
20260510070454 62 244 0.0 1.0 0.00 0.00 0.00 97 1013.6
20260510064955 61 243 0.0 2.0 0.00 0.00 0.00 97 1013.8
20260510064455 61 219 0.0 1.0 0.00 0.00 0.00 97 1013.8
20260510063956 60 191 0.0 1.0 0.00 0.00 0.00 97 1013.8
20260510063455 60 0 0.0 0.0 0.00 0.00 0.00 97 1014.1
20260510062955 59 0 0.0 0.0 0.00 0.00 0.00 97 1014.1
20260510062454 57 0 0.0 0.0 0.00 0.00 0.00 97 1014.1
20260510061956 57 0 0.0 0.0 0.00 0.00 0.00 97 1014.2
20260510061455 57 0 0.0 0.0 0.00 0.00 0.00 97 1014.2
20260510060954 56 0 0.0 0.0 0.00 0.00 0.00 97 1014.2
20260510060455 56 0 0.0 0.0 0.00 0.00 0.00 97 1014.4
20260510055956 56 0 0.0 0.0 0.00 0.00 0.00 97 1014.4
20260510055456 56 0 0.0 0.0 0.00 0.00 0.00 97 1014.3
20260510054956 56 0 0.0 0.0 0.00 0.00 0.00 97 1014.3
20260510054456 56 0 0.0 0.0 0.00 0.00 0.00 97 1014.4
20260510053955 56 0 0.0 0.0 0.00 0.00 0.00 97 1014.5
20260510053456 56 0 0.0 0.0 0.00 0.00 0.00 97 1014.5
20260510052955 56 0 0.0 0.0 0.00 0.00 0.00 97 1014.5
20260510052455 56 0 0.0 0.0 0.00 0.00 0.00 97 1014.5
20260510051955 56 0 0.0 0.0 0.00 0.00 0.00 97 1014.5
20260510051456 56 0 0.0 0.0 0.00 0.00 0.00 97 1014.4
20260510050956 56 0 0.0 0.0 0.00 0.00 0.00 97 1014.5
20260510050455 57 0 0.0 0.0 0.00 0.00 0.00 97 1014.4
20260510045957 57 0 0.0 0.0 0.00 0.00 0.00 97 1014.5
20260510045455 57 0 0.0 0.0 0.00 0.00 0.00 97 1014.6
20260510045026 57 0 0.0 0.0 0.00 0.00 0.00 97 1014.7
20260510044955 57 0 0.0 0.0 0.00 0.00 0.00 97 1014.7
20260510044456 57 0 0.0 0.0 0.00 0.00 0.00 97 1014.7
20260510043956 57 0 0.0 0.0 0.00 0.00 0.00 97 1014.6
20260510043456 57 0 0.0 0.0 0.00 0.00 0.00 97 1014.5
20260510042955 57 0 0.0 0.0 0.00 0.00 0.00 97 1014.6
20260510042455 58 0 0.0 0.0 0.00 0.00 0.00 97 1014.5
20260510041955 58 0 0.0 0.0 0.00 0.00 0.00 97 1014.5
20260510041455 58 0 0.0 0.0 0.00 0.00 0.00 97 1014.5
20260510040955 58 0 0.0 0.0 0.00 0.00 0.00 96 1014.5
20260510040455 58 0 0.0 0.0 0.00 0.00 0.00 96 1014.5
20260510035955 58 0 0.0 0.0 0.00 0.00 0.00 96 1014.5
20260510035456 58 0 0.0 0.0 0.00 0.00 0.00 96 1014.7
20260510034955 58 0 0.0 0.0 0.00 0.00 0.00 96 1014.8
20260510034455 58 0 0.0 0.0 0.00 0.00 0.00 96 1014.6
20260510033957 58 0 0.0 0.0 0.00 0.00 0.00 96 1014.6
20260510033455 58 0 0.0 0.0 0.00 0.00 0.00 96 1014.5
20260510032955 59 0 0.0 0.0 0.00 0.00 0.00 96 1014.5
20260510032455 58 0 0.0 0.0 0.00 0.00 0.00 96 1014.7
20260510031955 58 0 0.0 0.0 0.00 0.00 0.00 96 1014.6
20260510031455 59 0 0.0 0.0 0.00 0.00 0.00 96 1014.6
20260510030955 58 0 0.0 0.0 0.00 0.00 0.00 96 1014.5
20260510025955 59 0 0.0 0.0 0.00 0.00 0.00 96 1014.2
20260510025455 59 0 0.0 0.0 0.00 0.00 0.00 96 1014.1
20260510024955 59 0 0.0 0.0 0.00 0.00 0.00 95 1014.2
20260510024455 59 0 0.0 0.0 0.00 0.00 0.00 95 1014.0
20260510023955 60 0 0.0 0.0 0.00 0.00 0.00 95 1013.9
20260510023455 60 0 0.0 0.0 0.00 0.00 0.00 95 1013.8
20260510022955 60 0 0.0 0.0 0.00 0.00 0.00 95 1013.7
20260510022455 60 0 0.0 0.0 0.00 0.00 0.00 95 1013.7
20260510021955 60 0 0.0 0.0 0.00 0.00 0.00 95 1013.7
20260510021455 60 0 0.0 0.0 0.00 0.00 0.00 94 1013.7
20260510020955 60 0 0.0 0.0 0.00 0.00 0.00 94 1013.5
20260510020455 0 0 0.0 0.0 0.00 0.00 0.00 100
20260510015955 0 0 0.0 0.0 0.00 0.00 0.00 100
20260510015455 61 0 0.0 0.0 0.00 0.00 0.00 93 1013.2
20260510014955 61 0 0.0 0.0 0.00 0.00 0.00 93 1013.0
20260510014455 61 0 0.0 0.0 0.00 0.00 0.00 93 1012.9
20260510013956 62 0 0.0 0.0 0.00 0.00 0.00 93 1012.8
20260510013455 62 0 0.0 0.0 0.00 0.00 0.00 92 1012.8
20260510012956 62 191 0.0 1.0 0.00 0.00 0.00 92 1012.6
20260510012455 62 0 0.0 0.0 0.00 0.00 0.00 92 1012.5
20260510011955 63 0 0.0 0.0 0.00 0.00 0.00 91 1012.5
20260510011456 63 0 0.0 0.0 0.00 0.00 0.00 91 1012.4
20260510010955 63 0 0.0 0.0 0.00 0.00 0.00 91 1012.3
20260510010455 63 0 0.0 0.0 0.00 0.00 0.00 91 1012.4
20260510005955 63 0 0.0 0.0 0.00 0.00 0.00 90 1012.4
20260510005455 64 0 0.0 0.0 0.00 0.00 0.00 89 1012.2
20260510004955 64 0 0.0 0.0 0.00 0.00 0.00 88 1012.2
20260510004455 64 0 0.0 0.0 0.00 0.00 0.00 88 1012.2
20260510003955 65 0 0.0 0.0 0.00 0.00 0.00 87 1012.1
20260510003455 65 0 0.0 0.0 0.00 0.00 0.00 86 1011.9
20260510002955 65 0 0.0 0.0 0.00 0.00 0.00 85 1011.8
20260510002456 66 0 0.0 0.0 0.00 0.00 0.00 85 1011.7
20260510001955 66 0 0.0 0.0 0.00 0.00 0.00 84 1011.5
20260510000956 67 0 0.0 0.0 0.00 0.00 0.00 82 1011.4
20260510000456 67 0 0.0 0.0 0.00 0.00 0.00 82 1011.4
20260509235955 67 0 0.0 0.0 0.00 0.00 0.00 81 1011.4
20260509235455 68 0 0.0 0.0 0.00 0.00 0.00 80 1011.2
20260509234955 68 0 0.0 0.0 0.00 0.00 0.00 80 1011.2
20260509234455 68 0 0.0 0.0 0.00 0.00 0.00 79 1011.0
20260509233955 68 0 0.0 0.0 0.00 0.00 0.00 78 1011.2
20260509233455 69 0 0.0 0.0 0.00 0.00 0.00 77 1011.2
20260509232456 69 0 0.0 0.0 0.00 0.00 0.00 75 1011.1
20260509231955 70 0 0.0 0.0 0.00 0.00 0.00 74 1011.1
20260509231455 70 0 0.0 0.0 0.00 0.00 0.00 73 1011.1
20260509230955 71 0 0.0 0.0 0.00 0.00 0.00 73 1011.1
20260509230457 71 0 0.0 0.0 0.00 0.00 0.00 73 1011.0
20260509225957 71 191 0.0 1.0 0.00 0.00 0.00 72 1011.0
20260509225455 71 0 0.0 0.0 0.00 0.00 0.00 71 1011.0
20260509224955 71 0 0.0 0.0 0.00 0.00 0.00 71 1010.9
20260509224456 71 0 0.0 0.0 0.00 0.00 0.00 71 1010.9
20260509223955 72 192 0.0 1.0 0.00 0.00 0.00 70 1010.8
20260509223455 72 214 0.0 2.0 0.00 0.00 0.00 69 1010.8
20260509222959 72 227 0.0 1.0 0.00 0.00 0.00 67 1010.8
20260509222455 72 243 0.0 1.0 0.00 0.00 0.00 69 1010.7
20260509221957 73 249 1.0 3.0 0.00 0.00 0.00 66 1010.6
20260509220956 73 149 0.0 1.0 0.00 0.00 0.00 66 1010.4
20260509220457 72 305 1.0 3.0 0.00 0.00 0.00 67 1010.5